Location: Althorst
(53.6379°N, 10.7715°E)
Time: 21:36:23
(UTC+00:00)

Meteor 1-11 Rocket - Pass Details

Date: 10 December 2019
Orbit: 831 x 916 km, 81.2° (Epoch: 22 January)

Event Time Altitude Azimuth Distance (km) Brightness Sun altitude
Rises 16:05:29 0° 346° (NNW) 3,562 6.8 -9.4°
Reaches altitude 10° 16:07:58 10° 349° (NNW) 2,620 6.1 -9.7°
Maximum altitude 16:13:59 74° 75° (ENE) 956 3.8 -10.5°
Drops below altitude 10° 16:19:56 10° 160° (SSE) 2,595 6.3 -11.3°
Sets 16:22:23 0° 162° (SSE) 3,526 7.0 -11.6°
